Regional Weather Roundup
Issued by NWS

Home | Current Version | Previous Version | Graphics & Text | Print | Product List | Glossary On
Versions: 1 2 3 4 5 6 7 8 9 10 11 12 13 14 15 16 17 18 19 20 21 22 23 24 25 26 27 28 29 30 31 32 33 34 35 36 37 38 39 40 41 42 43 44 45 46 47 48 49 50
000
ASUS43 KIND 021559
RWRIN

WEATHER ROUNDUP FOR INDIANA
NATIONAL WEATHER SERVICE INDIANAPOLIS IN
1200 PM EDT MON MAY 02 2016

NOTE: "FAIR" INDICATES FEW OR NO CLOUDS BELOW 12,000 FEET WITH NO
SIGNIFICANT WEATHER AND/OR OBSTRUCTIONS TO VISIBILITY.

* - STATION DOES NOT REPORT WEATHER SUCH AS PRECIPITATION OR FOG.

+ - STATION NOT QUALITY CONTROLLED BY THE NATIONAL WEATHER SERVICE.
    USE DATA WITH CAUTION...ESPECIALLY DEWPOINT AND RELATIVE
    HUMIDITY OBSERVATIONS.

INZ001>003-010>013-019-020-021700-
NORTHWEST INDIANA

CITY           SKY/WX    TMP DP  RH WIND       PRES   REMARKS
GARY /AIRPORT/ PTSUNNY   48  45  87 N12G24    30.05F

$$

LMZ046-743>745-021700-
SOUTHERN LAKE MICHIGAN

STATION/POSITION TIME  TEMP    WIND        PRES    WAVE
                       AIR SEA DIR/SP/G            HT
                 (UTC) (F)     (DEG/KT/KT) (MB)    (FT)
BURNS HARBOR     1500   45      20/ 16/ 17 1017.3S
MICHIGAN CITY    1500   45      10/ 13/ 13   N/A

$$

INZ004-005-014>016-021>024-021700-
NORTH CENTRAL INDIANA

CITY           SKY/WX    TMP DP  RH WIND       PRES   REMARKS
ELKHART        CLOUDY    48  46  93 NE8       30.03R
GOSHEN         CLOUDY    49  44  83 NE6       30.02R
SOUTH BEND     CLOUDY    49  44  83 E6        30.03R

$$

INZ006>009-017-018-025>027-021700-
NORTHEAST INDIANA

CITY           SKY/WX    TMP DP  RH WIND       PRES   REMARKS
ANGOLA *+      CLOUDY    46  37  71 E8        30.00F
FORT WAYNE     CLOUDY    50  47  89 NE13      30.00S

$$

INZ028-029-035-036-043>045-051>053-021700-
WEST CENTRAL INDIANA

CITY           SKY/WX    TMP DP  RH WIND       PRES   REMARKS
CRAWFORDSVL +  DRIZZLE   49  49 100 W5        30.00F
LAFAYETTE      CLOUDY    50  47  89 N6        30.01R
TERRE HAUTE    CLOUDY    53  47  79 NW3       30.02R

$$

INZ030>032-037>040-046>048-054>057-064-065-021700-
CENTRAL INDIANA

CITY           SKY/WX    TMP DP  RH WIND       PRES   REMARKS
ANDERSON       CLOUDY    54  54 100 CALM      30.00R
COLUMBUS       CLOUDY    57  54  88 W5        29.98F
INDIANAPOLIS   CLOUDY    53  48  83 W6        29.98R
-EAGLE CREEK   CLOUDY    53  50  89 W3        29.98R
KOKOMO *+      CLOUDY    50  46  87 NE7       30.01R
SHELBYVILLE    CLOUDY    58  50  75 W7        29.98R

$$

INZ033-034-041-042-049-050-058-059-021700-
EAST CENTRAL INDIANA

CITY           SKY/WX    TMP DP  RH WIND       PRES   REMARKS
MUNCIE         CLOUDY    54  49  83 E7        29.99R

$$

INZ060-061-067>069-081>083-085>088-021700-
SOUTHWEST INDIANA

CITY           SKY/WX    TMP DP  RH WIND       PRES   REMARKS
EVANSVILLE     CLOUDY    60  51  72 W5        30.03R
HUNTINGBURG *+ CLOUDY    61  50  67 CALM      30.01R

$$

INZ062-063-066-070>080-084-089>092-021700-
SOUTH CENTRAL AND SOUTHEAST INDIANA

CITY           SKY/WX    TMP DP  RH WIND       PRES   REMARKS
BLOOMINGTON    CLOUDY    56  48  74 VRB6      29.99R
MADISON *+     CLOUDY    59  48  67 CALM      29.99F

$$




USA.gov is the U.S. government's official web portal to all federal, state and local government web resources and services.